Location: Riddle Hill
(39.7867°N, 89.7645°W)
Time: 21:57:16
(UTC+00:00)

ERS-2 - Pass Details

Date: 29 October 2020
Orbit: 493 x 497 km, 98.6° (Epoch: 30 November)

Event Time Altitude Azimuth Distance (km) Brightness Sun altitude
Rises 23:31:28 0° 13° (NNE) 2,584 5.5 -6.7°
Reaches altitude 10° 23:33:33 10° 13° (NNE) 1,697 4.6 -7.1°
Maximum altitude 23:37:12 89° 287° (WNW) 500 2.1 -7.8°
Drops below altitude 10° 23:40:50 10° 195° (SSW) 1,685 5.2 -8.5°
Sets 23:42:53 0° 195° (SSW) 2,563 6.1 -8.8°
